Year,Month,Day,Hour,Minute,Value (Times are PST for temperature in C)
2017,07,18,00,00,15.30
2017,07,18,00,01,15.30
2017,07,18,00,02,15.40
2017,07,18,00,03,15.40
2017,07,18,00,04,15.50
2017,07,18,00,05,15.50
2017,07,18,00,06,15.60
2017,07,18,00,07,15.60
2017,07,18,00,08,15.60
2017,07,18,00,09,15.60
2017,07,18,00,10,15.60
2017,07,18,00,11,15.60
2017,07,18,00,12,15.60
2017,07,18,00,13,15.60
2017,07,18,00,14,15.60
2017,07,18,00,15,15.60
2017,07,18,00,16,15.50
2017,07,18,00,17,15.50
2017,07,18,00,18,15.50
2017,07,18,00,19,15.50
2017,07,18,00,20,15.50
2017,07,18,00,21,15.50
2017,07,18,00,22,15.60
2017,07,18,00,23,15.60
2017,07,18,00,24,15.60
2017,07,18,00,25,15.60
2017,07,18,00,26,15.60
2017,07,18,00,27,15.70
2017,07,18,00,28,15.70
2017,07,18,00,29,15.70
2017,07,18,00,30,15.70
2017,07,18,00,31,15.70
2017,07,18,00,32,15.70
2017,07,18,00,33,15.70
2017,07,18,00,34,15.70
2017,07,18,00,35,15.70
2017,07,18,00,36,15.70
2017,07,18,00,37,15.60
2017,07,18,00,38,15.60
2017,07,18,00,39,15.60
2017,07,18,00,40,15.50
2017,07,18,00,41,15.50
2017,07,18,00,42,15.40
2017,07,18,00,43,15.40
2017,07,18,00,44,15.40
2017,07,18,00,45,15.30
2017,07,18,00,46,15.30
2017,07,18,00,47,15.30
2017,07,18,00,48,15.20
2017,07,18,00,49,15.20
2017,07,18,00,50,15.20
2017,07,18,00,51,15.10
2017,07,18,00,52,15.10
2017,07,18,00,53,15.10
2017,07,18,00,54,15.10
2017,07,18,00,55,15.00
2017,07,18,00,56,15.00
2017,07,18,00,57,15.00
2017,07,18,00,58,15.00
2017,07,18,00,59,15.00
2017,07,18,01,00,15.00
2017,07,18,01,01,15.00
2017,07,18,01,02,15.00
2017,07,18,01,03,15.00
2017,07,18,01,04,15.00
2017,07,18,01,05,15.00
2017,07,18,01,06,15.00
2017,07,18,01,07,15.00
2017,07,18,01,08,14.90
2017,07,18,01,09,14.90
2017,07,18,01,10,14.90
2017,07,18,01,11,14.90
2017,07,18,01,12,14.90
2017,07,18,01,13,14.90
2017,07,18,01,14,14.90
2017,07,18,01,15,14.80
2017,07,18,01,16,14.80
2017,07,18,01,17,14.80
2017,07,18,01,18,14.80
2017,07,18,01,19,14.80
2017,07,18,01,20,14.80
2017,07,18,01,21,14.80
2017,07,18,01,22,14.90
2017,07,18,01,23,14.90
2017,07,18,01,24,14.90
2017,07,18,01,25,14.90
2017,07,18,01,26,14.90
2017,07,18,01,27,14.90
2017,07,18,01,28,15.00
2017,07,18,01,29,15.00
2017,07,18,01,30,15.00
2017,07,18,01,31,15.10
2017,07,18,01,32,15.10
2017,07,18,01,33,15.10
2017,07,18,01,34,15.10
2017,07,18,01,35,15.10
2017,07,18,01,36,15.10
2017,07,18,01,37,15.10
2017,07,18,01,38,15.10
2017,07,18,01,39,15.10
2017,07,18,01,40,15.20
2017,07,18,01,41,15.20
2017,07,18,01,42,15.20
2017,07,18,01,43,15.20
2017,07,18,01,44,15.20
2017,07,18,01,45,15.20
2017,07,18,01,46,15.20
2017,07,18,01,47,15.20
2017,07,18,01,48,15.20
2017,07,18,01,49,15.30
2017,07,18,01,50,15.30
2017,07,18,01,51,15.30
2017,07,18,01,52,15.30
2017,07,18,01,53,15.30
2017,07,18,01,54,15.30
2017,07,18,01,55,15.30
2017,07,18,01,56,15.30
2017,07,18,01,57,15.30
2017,07,18,01,58,15.30
2017,07,18,01,59,15.30
2017,07,18,02,00,15.30
2017,07,18,02,01,15.30
2017,07,18,02,02,15.30
2017,07,18,02,03,15.30
2017,07,18,02,04,15.20
2017,07,18,02,05,15.20
2017,07,18,02,06,15.20
2017,07,18,02,07,15.20
2017,07,18,02,08,15.20
2017,07,18,02,09,15.20
2017,07,18,02,10,15.20
2017,07,18,02,11,15.20
2017,07,18,02,12,15.20
2017,07,18,02,13,15.20
2017,07,18,02,14,15.20
2017,07,18,02,15,15.20
2017,07,18,02,16,15.20
2017,07,18,02,17,15.20
2017,07,18,02,18,15.20
2017,07,18,02,19,15.20
2017,07,18,02,20,15.20
2017,07,18,02,21,15.20
2017,07,18,02,22,15.20
2017,07,18,02,23,15.10
2017,07,18,02,24,15.10
2017,07,18,02,25,15.10
2017,07,18,02,26,15.10
2017,07,18,02,27,15.10
2017,07,18,02,28,15.10
2017,07,18,02,29,15.10
2017,07,18,02,30,15.10
2017,07,18,02,31,15.10
2017,07,18,02,32,15.10
2017,07,18,02,33,15.10
2017,07,18,02,34,15.10
2017,07,18,02,35,15.00
2017,07,18,02,36,15.00
2017,07,18,02,37,15.00
2017,07,18,02,38,15.00
2017,07,18,02,39,15.00
2017,07,18,02,40,15.00
2017,07,18,02,41,15.00
2017,07,18,02,42,15.00
2017,07,18,02,43,15.00
2017,07,18,02,44,14.90
2017,07,18,02,45,14.90
2017,07,18,02,46,14.90
2017,07,18,02,47,14.90
2017,07,18,02,48,14.90
2017,07,18,02,49,14.90
2017,07,18,02,50,14.90
2017,07,18,02,51,14.90
2017,07,18,02,52,14.90
2017,07,18,02,53,14.90
2017,07,18,02,54,14.90
2017,07,18,02,55,14.90
2017,07,18,02,56,14.90
2017,07,18,02,57,14.90
2017,07,18,02,58,14.90
2017,07,18,02,59,14.90
2017,07,18,03,00,14.90
2017,07,18,03,01,14.90
2017,07,18,03,02,14.80
2017,07,18,03,03,14.80
2017,07,18,03,04,14.80
2017,07,18,03,05,14.80
2017,07,18,03,06,14.80
2017,07,18,03,07,14.80
2017,07,18,03,08,14.80
2017,07,18,03,09,14.80
2017,07,18,03,10,14.80
2017,07,18,03,11,14.80
2017,07,18,03,12,14.80
2017,07,18,03,13,14.80
2017,07,18,03,14,14.80
2017,07,18,03,15,14.80
2017,07,18,03,16,14.70
2017,07,18,03,17,14.70
2017,07,18,03,18,14.70
2017,07,18,03,19,14.70
2017,07,18,03,20,14.70
2017,07,18,03,21,14.70
2017,07,18,03,22,14.70
2017,07,18,03,23,14.70
2017,07,18,03,24,14.70
2017,07,18,03,25,14.70
2017,07,18,03,26,14.60
2017,07,18,03,27,14.60
2017,07,18,03,28,14.60
2017,07,18,03,29,14.60
2017,07,18,03,30,14.50
2017,07,18,03,31,14.50
2017,07,18,03,32,14.40
2017,07,18,03,33,14.40
2017,07,18,03,34,14.40
2017,07,18,03,35,14.40
2017,07,18,03,36,14.40
2017,07,18,03,37,14.40
2017,07,18,03,38,14.30
2017,07,18,03,39,14.30
2017,07,18,03,40,14.30
2017,07,18,03,41,14.20
2017,07,18,03,42,14.10
2017,07,18,03,43,14.10
2017,07,18,03,44,14.10
2017,07,18,03,45,14.10
2017,07,18,03,46,14.10
2017,07,18,03,47,14.10
2017,07,18,03,48,14.10
2017,07,18,03,49,14.10
2017,07,18,03,50,14.10
2017,07,18,03,51,14.10
2017,07,18,03,52,14.10
2017,07,18,03,53,14.00
2017,07,18,03,54,14.00
2017,07,18,03,55,14.10
2017,07,18,03,56,14.00
2017,07,18,03,57,14.00
2017,07,18,03,58,14.00
2017,07,18,03,59,14.00
2017,07,18,04,00,14.00
2017,07,18,04,01,14.00
2017,07,18,04,02,14.00
2017,07,18,04,03,14.00
2017,07,18,04,04,14.00
2017,07,18,04,05,13.90
2017,07,18,04,06,13.90
2017,07,18,04,07,13.90
2017,07,18,04,08,13.90
2017,07,18,04,09,13.90
2017,07,18,04,10,13.90
2017,07,18,04,11,13.90
2017,07,18,04,12,13.90
2017,07,18,04,13,13.80
2017,07,18,04,14,13.80
2017,07,18,04,15,13.80
2017,07,18,04,16,13.70
2017,07,18,04,17,13.70
2017,07,18,04,18,13.60
2017,07,18,04,19,13.60
2017,07,18,04,20,13.60
2017,07,18,04,21,13.50
2017,07,18,04,22,13.50
2017,07,18,04,23,13.40
2017,07,18,04,24,13.40
2017,07,18,04,25,13.40
2017,07,18,04,26,13.30
2017,07,18,04,27,13.30
2017,07,18,04,28,13.30
2017,07,18,04,29,13.30
2017,07,18,04,30,13.20
2017,07,18,04,31,13.20
2017,07,18,04,32,13.20
2017,07,18,04,33,13.20
2017,07,18,04,34,13.10
2017,07,18,04,35,13.10
2017,07,18,04,36,13.10
2017,07,18,04,37,13.00
2017,07,18,04,38,13.00
2017,07,18,04,39,12.90
2017,07,18,04,40,12.90
2017,07,18,04,41,12.90
2017,07,18,04,42,12.90
2017,07,18,04,43,12.80
2017,07,18,04,44,12.80
2017,07,18,04,45,12.80
2017,07,18,04,46,12.70
2017,07,18,04,47,12.70
2017,07,18,04,48,12.70
2017,07,18,04,49,12.70
2017,07,18,04,50,12.60
2017,07,18,04,51,12.60
2017,07,18,04,52,12.60
2017,07,18,04,53,12.60
2017,07,18,04,54,12.60
2017,07,18,04,55,12.60
2017,07,18,04,56,12.60
2017,07,18,04,57,12.60
2017,07,18,04,58,12.60
2017,07,18,04,59,12.60
2017,07,18,05,00,12.60
2017,07,18,05,01,12.60
2017,07,18,05,02,12.60
2017,07,18,05,03,12.50
2017,07,18,05,04,12.50
2017,07,18,05,05,12.40
2017,07,18,05,06,12.40
2017,07,18,05,07,12.30
2017,07,18,05,08,12.30
2017,07,18,05,09,12.20
2017,07,18,05,10,12.20
2017,07,18,05,11,12.10
2017,07,18,05,12,12.10
2017,07,18,05,13,12.00
2017,07,18,05,14,12.00
2017,07,18,05,15,11.90
2017,07,18,05,16,11.90
2017,07,18,05,17,11.90
2017,07,18,05,18,11.80
2017,07,18,05,19,11.80
2017,07,18,05,20,11.80
2017,07,18,05,21,11.80
2017,07,18,05,22,11.70
2017,07,18,05,23,11.70
2017,07,18,05,24,11.70
2017,07,18,05,25,11.60
2017,07,18,05,26,11.60
2017,07,18,05,27,11.50
2017,07,18,05,28,11.50
2017,07,18,05,29,11.50
2017,07,18,05,30,11.40
2017,07,18,05,31,11.40
2017,07,18,05,32,11.40
2017,07,18,05,33,11.40
2017,07,18,05,34,11.30
2017,07,18,05,35,11.30
2017,07,18,05,36,11.30
2017,07,18,05,37,11.30
2017,07,18,05,38,11.30
2017,07,18,05,39,11.30
2017,07,18,05,40,11.30
2017,07,18,05,41,11.30
2017,07,18,05,42,11.30
2017,07,18,05,43,11.30
2017,07,18,05,44,11.30
2017,07,18,05,45,11.30
2017,07,18,05,46,11.30
2017,07,18,05,47,11.20
2017,07,18,05,48,11.30
2017,07,18,05,49,11.20
2017,07,18,05,50,11.20
2017,07,18,05,51,11.20
2017,07,18,05,52,11.20
2017,07,18,05,53,11.20
2017,07,18,05,54,11.20
2017,07,18,05,55,11.20
2017,07,18,05,56,11.30
2017,07,18,05,57,11.30
2017,07,18,05,58,11.30
2017,07,18,05,59,11.30
2017,07,18,06,00,11.30
2017,07,18,06,01,11.40
2017,07,18,06,02,11.40
2017,07,18,06,03,11.50
2017,07,18,06,04,11.50
2017,07,18,06,05,11.60
2017,07,18,06,06,11.60
2017,07,18,06,07,11.60
2017,07,18,06,08,11.60
2017,07,18,06,09,11.60
2017,07,18,06,10,11.70
2017,07,18,06,11,11.70
2017,07,18,06,12,11.70
2017,07,18,06,13,11.70
2017,07,18,06,14,11.70
2017,07,18,06,15,11.70
2017,07,18,06,16,11.70
2017,07,18,06,17,11.80
2017,07,18,06,18,11.80
2017,07,18,06,19,11.80
2017,07,18,06,20,11.80
2017,07,18,06,21,11.80
2017,07,18,06,22,11.80
2017,07,18,06,23,11.90
2017,07,18,06,24,11.90
2017,07,18,06,25,11.90
2017,07,18,06,26,12.00
2017,07,18,06,27,12.00
2017,07,18,06,28,12.10
2017,07,18,06,29,12.10
2017,07,18,06,30,12.20
2017,07,18,06,31,12.20
2017,07,18,06,32,12.20
2017,07,18,06,33,12.30
2017,07,18,06,34,12.30
2017,07,18,06,35,12.40
2017,07,18,06,36,12.40
2017,07,18,06,37,12.50
2017,07,18,06,38,12.50
2017,07,18,06,39,12.60
2017,07,18,06,40,12.60
2017,07,18,06,41,12.70
2017,07,18,06,42,12.70
2017,07,18,06,43,12.80
2017,07,18,06,44,12.80
2017,07,18,06,45,12.90
2017,07,18,06,46,13.00
2017,07,18,06,47,13.00
2017,07,18,06,48,13.10
2017,07,18,06,49,13.20
2017,07,18,06,50,13.20
2017,07,18,06,51,13.30
2017,07,18,06,52,13.30
2017,07,18,06,53,13.30
2017,07,18,06,54,13.40
2017,07,18,06,55,13.40
2017,07,18,06,56,13.40
2017,07,18,06,57,13.40
2017,07,18,06,58,13.50
2017,07,18,06,59,13.50
2017,07,18,07,00,13.60
2017,07,18,07,01,13.60
2017,07,18,07,02,13.60
2017,07,18,07,03,13.70
2017,07,18,07,04,13.70
2017,07,18,07,05,13.70
2017,07,18,07,06,13.80
2017,07,18,07,07,13.80
2017,07,18,07,08,13.80
2017,07,18,07,09,13.90
2017,07,18,07,10,13.90
2017,07,18,07,11,13.90
2017,07,18,07,12,14.00
2017,07,18,07,13,14.00
2017,07,18,07,14,14.10
2017,07,18,07,15,14.10
2017,07,18,07,16,14.10
2017,07,18,07,17,14.20
2017,07,18,07,18,14.20
2017,07,18,07,19,14.20
2017,07,18,07,20,14.30
2017,07,18,07,21,14.30
2017,07,18,07,22,14.30
2017,07,18,07,23,14.40
2017,07,18,07,24,14.40
2017,07,18,07,25,14.40
2017,07,18,07,26,14.50
2017,07,18,07,27,14.50
2017,07,18,07,28,14.50
2017,07,18,07,29,14.60
2017,07,18,07,30,14.60
2017,07,18,07,31,14.60
2017,07,18,07,32,14.70
2017,07,18,07,33,14.70
2017,07,18,07,34,14.80
2017,07,18,07,35,14.80
2017,07,18,07,36,14.80
2017,07,18,07,37,14.90
2017,07,18,07,38,14.90
2017,07,18,07,39,14.90
2017,07,18,07,40,14.90
2017,07,18,07,41,14.90
2017,07,18,07,42,15.00
2017,07,18,07,43,14.90
2017,07,18,07,44,14.90
2017,07,18,07,45,14.90
2017,07,18,07,46,14.90
2017,07,18,07,47,14.90
2017,07,18,07,48,14.90
2017,07,18,07,49,14.90
2017,07,18,07,50,14.90
2017,07,18,07,51,14.90
2017,07,18,07,52,14.90
2017,07,18,07,53,15.00
2017,07,18,07,54,15.00
2017,07,18,07,55,15.00
2017,07,18,07,56,15.10
2017,07,18,07,57,15.10
2017,07,18,07,58,15.10
2017,07,18,07,59,15.10
2017,07,18,08,00,15.10
2017,07,18,08,01,15.00
2017,07,18,08,02,15.00
2017,07,18,08,03,15.00
2017,07,18,08,04,15.00
2017,07,18,08,05,14.90
2017,07,18,08,06,14.90
2017,07,18,08,07,15.00
2017,07,18,08,08,15.00
2017,07,18,08,09,15.00
2017,07,18,08,10,15.10
2017,07,18,08,11,15.10
2017,07,18,08,12,15.10
2017,07,18,08,13,15.10
2017,07,18,08,14,15.10
2017,07,18,08,15,15.10
2017,07,18,08,16,15.10
2017,07,18,08,17,15.10
2017,07,18,08,18,15.10
2017,07,18,08,19,15.10
2017,07,18,08,20,15.10
2017,07,18,08,21,15.10
2017,07,18,08,22,15.20
2017,07,18,08,23,15.20
2017,07,18,08,24,15.20
2017,07,18,08,25,15.30
2017,07,18,08,26,15.30
2017,07,18,08,27,15.30
2017,07,18,08,28,15.30
2017,07,18,08,29,15.30
2017,07,18,08,30,15.40
2017,07,18,08,31,15.40
2017,07,18,08,32,15.40
2017,07,18,08,33,15.40
2017,07,18,08,34,15.40
2017,07,18,08,35,15.40
2017,07,18,08,36,15.40
2017,07,18,08,37,15.40
2017,07,18,08,38,15.40
2017,07,18,08,39,15.40
2017,07,18,08,40,15.40
2017,07,18,08,41,15.40
2017,07,18,08,42,15.40
2017,07,18,08,43,15.40
2017,07,18,08,44,15.40
2017,07,18,08,45,15.50
2017,07,18,08,46,15.60
2017,07,18,08,47,15.60
2017,07,18,08,48,15.60
2017,07,18,08,49,15.50
2017,07,18,08,50,15.50
2017,07,18,08,51,15.60
2017,07,18,08,52,15.60
2017,07,18,08,53,15.60
2017,07,18,08,54,15.60
2017,07,18,08,55,15.60
2017,07,18,08,56,15.50
2017,07,18,08,57,15.50
2017,07,18,08,58,15.50
2017,07,18,08,59,15.50
2017,07,18,09,00,15.50
2017,07,18,09,01,15.40
2017,07,18,09,02,15.50
2017,07,18,09,03,15.40
2017,07,18,09,04,15.50
2017,07,18,09,05,15.50
2017,07,18,09,06,15.60
2017,07,18,09,07,15.60
2017,07,18,09,08,15.60
2017,07,18,09,09,15.60
2017,07,18,09,10,15.60
2017,07,18,09,11,15.70
2017,07,18,09,12,15.70
2017,07,18,09,13,15.70
2017,07,18,09,14,15.70
2017,07,18,09,15,15.70
2017,07,18,09,16,15.80
2017,07,18,09,17,15.80
2017,07,18,09,18,15.80
2017,07,18,09,19,15.80
2017,07,18,09,20,15.80
2017,07,18,09,21,15.80
2017,07,18,09,22,15.80
2017,07,18,09,23,15.80
2017,07,18,09,24,15.80
2017,07,18,09,25,15.80
2017,07,18,09,26,15.90
2017,07,18,09,27,15.90
2017,07,18,09,28,15.90
2017,07,18,09,29,16.00
2017,07,18,09,30,16.00
2017,07,18,09,31,16.10
2017,07,18,09,32,16.20
2017,07,18,09,33,16.30
2017,07,18,09,34,16.30
2017,07,18,09,35,16.30
2017,07,18,09,36,16.30
2017,07,18,09,37,16.30
2017,07,18,09,38,16.30
2017,07,18,09,39,16.30
2017,07,18,09,40,16.40
2017,07,18,09,41,16.40
2017,07,18,09,42,16.40
2017,07,18,09,43,16.50
2017,07,18,09,44,16.50
2017,07,18,09,45,16.60
2017,07,18,09,46,16.60
2017,07,18,09,47,16.60
2017,07,18,09,48,16.60
2017,07,18,09,49,16.70
2017,07,18,09,50,16.80
2017,07,18,09,51,16.80
2017,07,18,09,52,16.90
2017,07,18,09,53,16.90
2017,07,18,09,54,16.90
2017,07,18,09,55,16.90
2017,07,18,09,56,17.00
2017,07,18,09,57,17.00
2017,07,18,09,58,17.10
2017,07,18,09,59,17.10
2017,07,18,10,00,17.10
2017,07,18,10,01,17.20
2017,07,18,10,02,17.20
2017,07,18,10,03,17.20
2017,07,18,10,04,17.20
2017,07,18,10,05,17.30
2017,07,18,10,06,17.30
2017,07,18,10,07,17.30
2017,07,18,10,08,17.30
2017,07,18,10,09,17.20
2017,07,18,10,10,17.20
2017,07,18,10,11,17.20
2017,07,18,10,12,17.20
2017,07,18,10,13,17.30
2017,07,18,10,14,17.30
2017,07,18,10,15,17.40
2017,07,18,10,16,17.50
2017,07,18,10,17,17.60
2017,07,18,10,18,17.60
2017,07,18,10,19,17.70
2017,07,18,10,20,17.70
2017,07,18,10,21,17.70
2017,07,18,10,22,17.80
2017,07,18,10,23,17.80
2017,07,18,10,24,17.80
2017,07,18,10,25,17.90
2017,07,18,10,26,18.00
2017,07,18,10,27,18.00
2017,07,18,10,28,18.00
2017,07,18,10,29,18.00
2017,07,18,10,30,18.00
2017,07,18,10,31,18.10
2017,07,18,10,32,18.10
2017,07,18,10,33,18.20
2017,07,18,10,34,18.30
2017,07,18,10,35,18.30
2017,07,18,10,36,18.40
2017,07,18,10,37,18.40
2017,07,18,10,38,18.50
2017,07,18,10,39,18.60
2017,07,18,10,40,18.70
2017,07,18,10,41,18.80
2017,07,18,10,42,18.90
2017,07,18,10,43,19.00
2017,07,18,10,44,19.00
2017,07,18,10,45,19.10
2017,07,18,10,46,19.20
2017,07,18,10,47,19.20
2017,07,18,10,48,19.30
2017,07,18,10,49,19.30
2017,07,18,10,50,19.30
2017,07,18,10,51,19.20
2017,07,18,10,52,19.30
2017,07,18,10,53,19.30
2017,07,18,10,54,19.30
2017,07,18,10,55,19.30
2017,07,18,10,56,19.30
2017,07,18,10,57,19.30
2017,07,18,10,58,19.20
2017,07,18,10,59,19.20
2017,07,18,11,00,19.20
2017,07,18,11,01,19.20
2017,07,18,11,02,19.20
2017,07,18,11,03,19.20
2017,07,18,11,04,19.30
2017,07,18,11,05,19.30
2017,07,18,11,06,19.30
2017,07,18,11,07,19.40
2017,07,18,11,08,19.40
2017,07,18,11,09,19.50
2017,07,18,11,10,19.50
2017,07,18,11,11,19.50
2017,07,18,11,12,19.50
2017,07,18,11,13,19.50
2017,07,18,11,14,19.40
2017,07,18,11,15,19.40
2017,07,18,11,16,19.30
2017,07,18,11,17,19.40
2017,07,18,11,18,19.40
2017,07,18,11,19,19.40
2017,07,18,11,20,19.40
2017,07,18,11,21,19.40
2017,07,18,11,22,19.40
2017,07,18,11,23,19.40
2017,07,18,11,24,19.40
2017,07,18,11,25,19.40
2017,07,18,11,26,19.40
2017,07,18,11,27,19.40
2017,07,18,11,28,19.50
2017,07,18,11,29,19.50
2017,07,18,11,30,19.50
2017,07,18,11,31,19.60
2017,07,18,11,32,19.50
2017,07,18,11,33,19.50
2017,07,18,11,34,19.50
2017,07,18,11,35,19.40
2017,07,18,11,36,19.40
2017,07,18,11,37,19.40
2017,07,18,11,38,19.30
2017,07,18,11,39,19.30
2017,07,18,11,40,19.30
2017,07,18,11,41,19.20
2017,07,18,11,42,19.20
2017,07,18,11,43,19.20
2017,07,18,11,44,19.20
2017,07,18,11,45,19.20
2017,07,18,11,46,19.30
2017,07,18,11,47,19.30
2017,07,18,11,48,19.30
2017,07,18,11,49,19.30
2017,07,18,11,50,19.20
2017,07,18,11,51,19.20
2017,07,18,11,52,19.20
2017,07,18,11,53,19.20
2017,07,18,11,54,19.30
2017,07,18,11,55,19.30
2017,07,18,11,56,19.40
2017,07,18,11,57,19.50
2017,07,18,11,58,19.50
2017,07,18,11,59,19.60
2017,07,18,12,00,19.60
2017,07,18,12,01,19.60
2017,07,18,12,02,19.60
2017,07,18,12,03,19.60
2017,07,18,12,04,19.60
2017,07,18,12,05,19.70
2017,07,18,12,06,19.70
2017,07,18,12,07,19.70
2017,07,18,12,08,19.70
2017,07,18,12,09,19.70
2017,07,18,12,10,19.80
2017,07,18,12,11,19.80
2017,07,18,12,12,19.90
2017,07,18,12,13,19.90
2017,07,18,12,14,19.90
2017,07,18,12,15,19.90
2017,07,18,12,16,19.90
2017,07,18,12,17,20.00
2017,07,18,12,18,20.00
2017,07,18,12,19,19.90
2017,07,18,12,20,19.90
2017,07,18,12,21,19.90
2017,07,18,12,22,19.90
2017,07,18,12,23,19.90
2017,07,18,12,24,19.80
2017,07,18,12,25,19.90
2017,07,18,12,26,19.90
2017,07,18,12,27,20.00
2017,07,18,12,28,19.90
2017,07,18,12,29,19.90
2017,07,18,12,30,19.90
2017,07,18,12,31,19.80
2017,07,18,12,32,19.80
2017,07,18,12,33,19.80
2017,07,18,12,34,19.80
2017,07,18,12,35,19.80
2017,07,18,12,36,19.80
2017,07,18,12,37,19.90
2017,07,18,12,38,20.00
2017,07,18,12,39,20.10
2017,07,18,12,40,20.20
2017,07,18,12,41,20.30
2017,07,18,12,42,20.30
2017,07,18,12,43,20.30
2017,07,18,12,44,20.30
2017,07,18,12,45,20.30
2017,07,18,12,46,20.30
2017,07,18,12,47,20.40
2017,07,18,12,48,20.40
2017,07,18,12,49,20.40
2017,07,18,12,50,20.40
2017,07,18,12,51,20.30
2017,07,18,12,52,20.30
2017,07,18,12,53,20.30
2017,07,18,12,54,20.20
2017,07,18,12,55,20.10
2017,07,18,12,56,20.10
2017,07,18,12,57,20.10
2017,07,18,12,58,20.10
2017,07,18,12,59,20.10
2017,07,18,13,00,20.00
2017,07,18,13,01,20.10
2017,07,18,13,02,20.10
2017,07,18,13,03,20.20
2017,07,18,13,04,20.20
2017,07,18,13,05,20.30
2017,07,18,13,06,20.20
2017,07,18,13,07,20.20
2017,07,18,13,08,20.10
2017,07,18,13,09,20.00
2017,07,18,13,10,19.90
2017,07,18,13,11,19.90
2017,07,18,13,12,19.80
2017,07,18,13,13,19.80
2017,07,18,13,14,19.70
2017,07,18,13,15,19.70
2017,07,18,13,16,19.60
2017,07,18,13,17,19.70
2017,07,18,13,18,19.70
2017,07,18,13,19,19.80
2017,07,18,13,20,19.90
2017,07,18,13,21,19.90
2017,07,18,13,22,19.90
2017,07,18,13,23,19.90
2017,07,18,13,24,19.80
2017,07,18,13,25,19.80
2017,07,18,13,26,19.70
2017,07,18,13,27,19.70
2017,07,18,13,28,19.70
2017,07,18,13,29,19.70
2017,07,18,13,30,19.70
2017,07,18,13,31,19.70
2017,07,18,13,32,19.70
2017,07,18,13,33,19.80
2017,07,18,13,34,19.80
2017,07,18,13,35,19.80
2017,07,18,13,36,19.80
2017,07,18,13,37,19.80
2017,07,18,13,38,19.90
2017,07,18,13,39,19.90
2017,07,18,13,40,19.90
2017,07,18,13,41,19.90
2017,07,18,13,42,19.90
2017,07,18,13,43,19.90
2017,07,18,13,44,20.00
2017,07,18,13,45,20.00
2017,07,18,13,46,20.00
2017,07,18,13,47,20.10
2017,07,18,13,48,20.20
2017,07,18,13,49,20.20
2017,07,18,13,50,20.20
2017,07,18,13,51,20.20
2017,07,18,13,52,20.20
2017,07,18,13,53,20.20
2017,07,18,13,54,20.10
2017,07,18,13,55,20.10
2017,07,18,13,56,20.00
2017,07,18,13,57,20.00
2017,07,18,13,58,20.00
2017,07,18,13,59,20.00
2017,07,18,14,00,20.00
2017,07,18,14,01,20.00
2017,07,18,14,02,20.00
2017,07,18,14,03,20.00
2017,07,18,14,04,20.10
2017,07,18,14,05,20.10
2017,07,18,14,06,20.20
2017,07,18,14,07,20.10
2017,07,18,14,08,20.10
2017,07,18,14,09,20.00
2017,07,18,14,10,20.00
2017,07,18,14,11,20.00
2017,07,18,14,12,20.00
2017,07,18,14,13,20.00
2017,07,18,14,14,20.00
2017,07,18,14,15,20.10
2017,07,18,14,16,20.10
2017,07,18,14,17,20.10
2017,07,18,14,18,20.20
2017,07,18,14,19,20.20
2017,07,18,14,20,20.20
2017,07,18,14,21,20.20
2017,07,18,14,22,20.30
2017,07,18,14,23,20.40
2017,07,18,14,24,20.40
2017,07,18,14,25,20.50
2017,07,18,14,26,20.60
2017,07,18,14,27,20.60
2017,07,18,14,28,20.70
2017,07,18,14,29,20.70
2017,07,18,14,30,20.70
2017,07,18,14,31,20.80
2017,07,18,14,32,20.80
2017,07,18,14,33,20.80
2017,07,18,14,34,20.90
2017,07,18,14,35,20.90
2017,07,18,14,36,21.00
2017,07,18,14,37,21.10
2017,07,18,14,38,21.10
2017,07,18,14,39,21.10
2017,07,18,14,40,21.20
2017,07,18,14,41,21.20
2017,07,18,14,42,21.20
2017,07,18,14,43,21.20
2017,07,18,14,44,21.20
2017,07,18,14,45,21.10
2017,07,18,14,46,21.10
2017,07,18,14,47,21.10
2017,07,18,14,48,21.00
2017,07,18,14,49,21.00
2017,07,18,14,50,20.90
2017,07,18,14,51,21.00
2017,07,18,14,52,21.00
2017,07,18,14,53,21.00
2017,07,18,14,54,21.00
2017,07,18,14,55,21.10
2017,07,18,14,56,21.10
2017,07,18,14,57,21.10
2017,07,18,14,58,21.10
2017,07,18,14,59,21.10
2017,07,18,15,00,21.20
2017,07,18,15,01,21.30
2017,07,18,15,02,21.30
2017,07,18,15,03,21.40
2017,07,18,15,04,21.50
2017,07,18,15,05,21.60
2017,07,18,15,06,21.70
2017,07,18,15,07,21.70
2017,07,18,15,08,21.70
2017,07,18,15,09,21.70
2017,07,18,15,10,21.60
2017,07,18,15,11,21.50
2017,07,18,15,12,21.50
2017,07,18,15,13,21.40
2017,07,18,15,14,21.40
2017,07,18,15,15,21.40
2017,07,18,15,16,21.40
2017,07,18,15,17,21.40
2017,07,18,15,18,21.40
2017,07,18,15,19,21.40
2017,07,18,15,20,21.40
2017,07,18,15,21,21.30
2017,07,18,15,22,21.30
2017,07,18,15,23,21.30
2017,07,18,15,24,21.30
2017,07,18,15,25,21.30
2017,07,18,15,26,21.30
2017,07,18,15,27,21.30
2017,07,18,15,28,21.40
2017,07,18,15,29,21.40
2017,07,18,15,30,21.40
2017,07,18,15,31,21.40
2017,07,18,15,32,21.40
2017,07,18,15,33,21.50
2017,07,18,15,34,21.50
2017,07,18,15,35,21.60
2017,07,18,15,36,21.70
2017,07,18,15,37,21.80
2017,07,18,15,38,21.80
2017,07,18,15,39,21.90
2017,07,18,15,40,21.90
2017,07,18,15,41,21.90
2017,07,18,15,42,21.90
2017,07,18,15,43,21.90
2017,07,18,15,44,21.90
2017,07,18,15,45,21.90
2017,07,18,15,46,21.90
2017,07,18,15,47,21.90
2017,07,18,15,48,21.90
2017,07,18,15,49,21.90
2017,07,18,15,50,21.90
2017,07,18,15,51,21.90
2017,07,18,15,52,21.90
2017,07,18,15,53,22.00
2017,07,18,15,54,22.00
2017,07,18,15,55,22.00
2017,07,18,15,56,22.00
2017,07,18,15,57,22.00
2017,07,18,15,58,22.00
2017,07,18,15,59,21.90
2017,07,18,16,00,22.00
2017,07,18,16,01,22.00
2017,07,18,16,02,22.10
2017,07,18,16,03,22.10
2017,07,18,16,04,22.10
2017,07,18,16,05,22.10
2017,07,18,16,06,22.10
2017,07,18,16,07,22.10
2017,07,18,16,08,22.10
2017,07,18,16,09,22.20
2017,07,18,16,10,22.30
2017,07,18,16,11,22.40
2017,07,18,16,12,22.50
2017,07,18,16,13,22.60
2017,07,18,16,14,22.70
2017,07,18,16,15,22.80
2017,07,18,16,16,22.80
2017,07,18,16,17,22.80
2017,07,18,16,18,22.70
2017,07,18,16,19,22.70
2017,07,18,16,20,22.80
2017,07,18,16,21,22.80
2017,07,18,16,22,22.80
2017,07,18,16,23,22.90
2017,07,18,16,24,22.90
2017,07,18,16,25,22.90
2017,07,18,16,26,22.90
2017,07,18,16,27,23.00
2017,07,18,16,28,23.10
2017,07,18,16,29,23.20
2017,07,18,16,30,23.20
2017,07,18,16,31,23.30
2017,07,18,16,32,23.30
2017,07,18,16,33,23.20
2017,07,18,16,34,23.20
2017,07,18,16,35,23.20
2017,07,18,16,36,23.30
2017,07,18,16,37,23.30
2017,07,18,16,38,23.30
2017,07,18,16,39,23.30
2017,07,18,16,40,23.40
2017,07,18,16,41,23.40
2017,07,18,16,42,23.40
2017,07,18,16,43,23.30
2017,07,18,16,44,23.30
2017,07,18,16,45,23.20
2017,07,18,16,46,23.10
2017,07,18,16,47,23.10
2017,07,18,16,48,23.10
2017,07,18,16,49,23.00
2017,07,18,16,50,23.00
2017,07,18,16,51,23.00
2017,07,18,16,52,22.90
2017,07,18,16,53,22.90
2017,07,18,16,54,22.90
2017,07,18,16,55,22.90
2017,07,18,16,56,22.90
2017,07,18,16,57,22.90
2017,07,18,16,58,22.90
2017,07,18,16,59,23.00
2017,07,18,17,00,23.10
2017,07,18,17,01,23.10
2017,07,18,17,02,23.20
2017,07,18,17,03,23.40
2017,07,18,17,04,23.40
2017,07,18,17,05,23.40
2017,07,18,17,06,23.40
2017,07,18,17,07,23.40
2017,07,18,17,08,23.40
2017,07,18,17,09,23.40
2017,07,18,17,10,23.40
2017,07,18,17,11,23.40
2017,07,18,17,12,23.50
2017,07,18,17,13,23.50
2017,07,18,17,14,23.50
2017,07,18,17,15,23.50
2017,07,18,17,16,23.50
2017,07,18,17,17,23.50
2017,07,18,17,18,23.40
2017,07,18,17,19,23.40